When you browse on this site, cookies collect data to enhance your experience and personalize the content and advertising you see.
Visit our Privacy Policy to learn more. By continuing to use the site, you agree to this use of cookies and data.
  • In Portugal
  • List of Countries
  • For 7 days
  • Water Temperature
  • Weather Map
  • Weather Widgets
  • user-avatar
    Login

    Hourly Weather Poldnevaya

    Today, 31 May, Sunday

    Time Temperature Precipitation Wind Pressure Humidity
    00:00 +13°C° 0 mm 2 mps 726 mmHg 89%
    01:00 +12°C° 0 mm 2 mps 726 mmHg 94%
    02:00 +12°C° 0 mm 2 mps 726 mmHg 95%
    03:00 +10°C° 0 mm 2 mps 725 mmHg 96%
    04:00 +10°C° 0 mm 2 mps 725 mmHg 97%
    05:00 +12°C° 0 mm 2 mps 725 mmHg 94%
    06:00 +12°C° 0 mm 3 mps 724 mmHg 91%
    07:00 +13°C° 0 mm 3 mps 724 mmHg 87%
    08:00 +14°C° 0 mm 3 mps 724 mmHg 83%
    09:00 +16°C° 0 mm 3 mps 724 mmHg 79%
    10:00 +15°C° 0 mm 4 mps 724 mmHg 76%
    11:00 +15°C° 0 mm 4 mps 723 mmHg 74%
    12:00 +15°C° 0 mm 4 mps 723 mmHg 73%
    13:00 +17°C° 0 mm 4 mps 723 mmHg 71%
    14:00 +16°C° 0.1 mm 5 mps 723 mmHg 70%
    15:00 +16°C° 0.1 mm 5 mps 723 mmHg 70%
    16:00 +16°C° 0.1 mm 5 mps 722 mmHg 69%
    17:00 +14°C° 1 mm 5 mps 722 mmHg 76%
    18:00 +12°C° 1 mm 5 mps 721 mmHg 83%
    19:00 +9°C° 1 mm 5 mps 721 mmHg 90%
    20:00 +10°C° 2.3 mm 4 mps 721 mmHg 93%
    21:00 +8°C° 2.3 mm 4 mps 720 mmHg 95%
    22:00 +8°C° 2.3 mm 4 mps 720 mmHg 97%
    23:00 +8°C° 0.2 mm 4 mps 720 mmHg 97%

    Tomorrow, 1 June, Monday

    Time Temperature Precipitation Wind Pressure Humidity
    00:00 +9°C° 0.2 mm 3 mps 719 mmHg 97%
    01:00 +9°C° 0.2 mm 3 mps 719 mmHg 98%
    02:00 +10°C° 0.3 mm 3 mps 719 mmHg 98%
    03:00 +11°C° 0.3 mm 3 mps 719 mmHg 98%
    04:00 +12°C° 0.3 mm 2 mps 719 mmHg 98%
    05:00 +12°C° 0.1 mm 3 mps 719 mmHg 96%
    06:00 +13°C° 0.1 mm 3 mps 719 mmHg 94%
    07:00 +14°C° 0.1 mm 4 mps 719 mmHg 93%
    08:00 +14°C° 0.3 mm 4 mps 720 mmHg 89%
    09:00 +15°C° 0.3 mm 5 mps 720 mmHg 85%
    10:00 +16°C° 0.3 mm 5 mps 721 mmHg 81%
    11:00 +16°C° 0.5 mm 5 mps 721 mmHg 81%
    12:00 +16°C° 0.5 mm 5 mps 722 mmHg 81%
    13:00 +16°C° 0.5 mm 5 mps 722 mmHg 81%
    14:00 +15°C° 0.4 mm 4 mps 722 mmHg 84%
    15:00 +14°C° 0.4 mm 4 mps 723 mmHg 87%
    16:00 +13°C° 0.4 mm 3 mps 723 mmHg 90%
    17:00 +13°C° 0.1 mm 3 mps 723 mmHg 90%
    18:00 +14°C° 0.1 mm 2 mps 723 mmHg 90%
    19:00 +13°C° 0.1 mm 2 mps 724 mmHg 90%
    20:00 +12°C° 0 mm 2 mps 724 mmHg 93%
    21:00 +10°C° 0 mm 2 mps 724 mmHg 95%
    22:00 +9°C° 0 mm 1 mps 725 mmHg 98%
    23:00 +9°C° 0 mm 1 mps 725 mmHg 97%

    Day after tomorrow, 2 June, Tuesday

    Time Temperature Precipitation Wind Pressure Humidity
    00:00 +9°C° 0 mm 1 mps 725 mmHg 97%
    01:00 +9°C° 0 mm 1 mps 725 mmHg 97%
    02:00 +9°C° 0 mm 1 mps 726 mmHg 97%
    03:00 +8°C° 0 mm 1 mps 726 mmHg 97%
    04:00 +8°C° 0 mm 1 mps 726 mmHg 96%
    05:00 +8°C° 0 mm 1 mps 727 mmHg 96%
    06:00 +8°C° 0 mm 1 mps 727 mmHg 95%
    07:00 +8°C° 0 mm 1 mps 727 mmHg 95%
    08:00 +8°C° 0.1 mm 1 mps 728 mmHg 94%
    09:00 +7°C° 0.1 mm 2 mps 728 mmHg 94%
    10:00 +7°C° 0.1 mm 2 mps 728 mmHg 93%
    11:00 +9°C° 0 mm 1 mps 729 mmHg 88%
    12:00 +10°C° 0 mm 1 mps 729 mmHg 83%
    13:00 +11°C° 0 mm 1 mps 729 mmHg 77%
    14:00 +13°C° 0 mm 1 mps 729 mmHg 71%
    15:00 +14°C° 0 mm 1 mps 729 mmHg 64%
    16:00 +15°C° 0 mm 1 mps 730 mmHg 57%
    17:00 +14°C° 0 mm 1 mps 729 mmHg 61%
    18:00 +13°C° 0 mm 1 mps 729 mmHg 66%
    19:00 +13°C° 0 mm 1 mps 729 mmHg 70%
    20:00 +10°C° 0 mm 0 mps 729 mmHg 75%
    21:00 +8°C° 0 mm 0 mps 729 mmHg 80%
    22:00 +6°C° 0 mm 0 mps 730 mmHg 85%
    23:00 +6°C° 0 mm 0 mps 730 mmHg 85%

    3 June, Wednesday

    Time Temperature Precipitation Wind Pressure Humidity
    00:00 +5°C° 0 mm 0 mps 729 mmHg 86%
    01:00 +5°C° 0 mm 0 mps 729 mmHg 86%
    02:00 +5°C° 0 mm 0 mps 729 mmHg 86%
    03:00 +5°C° 0 mm 0 mps 730 mmHg 86%
    04:00 +5°C° 0 mm 0 mps 730 mmHg 86%
    05:00 +7°C° 0 mm 0 mps 730 mmHg 77%
    06:00 +10°C° 0 mm 0 mps 730 mmHg 68%
    07:00 +12°C° 0 mm 0 mps 730 mmHg 58%
    08:00 +14°C° 0 mm 1 mps 730 mmHg 54%
    09:00 +16°C° 0 mm 1 mps 730 mmHg 49%
    10:00 +17°C° 0 mm 2 mps 730 mmHg 45%
    11:00 +17°C° 0 mm 2 mps 730 mmHg 45%
    12:00 +18°C° 0 mm 1 mps 729 mmHg 45%
    13:00 +18°C° 0 mm 1 mps 729 mmHg 46%
    14:00 +18°C° 0 mm 1 mps 729 mmHg 47%
    15:00 +16°C° 0 mm 1 mps 729 mmHg 48%
    16:00 +16°C° 0 mm 1 mps 729 mmHg 49%
    17:00 +15°C° 0 mm 1 mps 729 mmHg 54%
    18:00 +15°C° 0 mm 1 mps 729 mmHg 60%
    19:00 +14°C° 0 mm 1 mps 729 mmHg 65%
    20:00 +12°C° 0 mm 1 mps 729 mmHg 69%
    21:00 +11°C° 0 mm 1 mps 729 mmHg 74%
    22:00 +9°C° 0 mm 1 mps 729 mmHg 78%
    23:00 +8°C° 0 mm 1 mps 729 mmHg 81%

    4 June, Thursday

    Time Temperature Precipitation Wind Pressure Humidity
    00:00 +8°C° 0 mm 1 mps 729 mmHg 84%
    01:00 +7°C° 0 mm 1 mps 730 mmHg 87%
    02:00 +7°C° 0 mm 1 mps 730 mmHg 89%
    03:00 +7°C° 0 mm 1 mps 730 mmHg 92%
    04:00 +7°C° 0 mm 1 mps 730 mmHg 94%
    05:00 +9°C° 0 mm 1 mps 730 mmHg 85%
    06:00 +10°C° 0 mm 2 mps 731 mmHg 76%
    07:00 +13°C° 0 mm 2 mps 731 mmHg 67%
    08:00 +14°C° 0 mm 2 mps 731 mmHg 61%
    09:00 +14°C° 0 mm 3 mps 731 mmHg 55%
    10:00 +16°C° 0 mm 3 mps 731 mmHg 48%
    11:00 +17°C° 0 mm 3 mps 731 mmHg 46%
    12:00 +18°C° 0 mm 3 mps 731 mmHg 44%
    13:00 +18°C° 0 mm 3 mps 731 mmHg 42%
    14:00 +18°C° 0 mm 3 mps 731 mmHg 42%
    15:00 +18°C° 0 mm 2 mps 731 mmHg 42%
    16:00 +18°C° 0 mm 2 mps 731 mmHg 42%
    17:00 +17°C° 0 mm 2 mps 731 mmHg 48%
    18:00 +16°C° 0 mm 2 mps 731 mmHg 55%
    19:00 +15°C° 0 mm 1 mps 731 mmHg 62%
    20:00 +13°C° 0 mm 1 mps 731 mmHg 70%
    21:00 +11°C° 0 mm 1 mps 731 mmHg 78%
    22:00 +8°C° 0 mm 0 mps 731 mmHg 87%
    23:00 +7°C° 0 mm 0 mps 732 mmHg 88%

    5 June, Friday

    Time Temperature Precipitation Wind Pressure Humidity
    00:00 +7°C° 0 mm 0 mps 732 mmHg 89%
    01:00 +7°C° 0 mm 0 mps 732 mmHg 90%
    02:00 +7°C° 0 mm 0 mps 732 mmHg 89%
    03:00 +7°C° 0 mm 0 mps 733 mmHg 88%
    04:00 +7°C° 0 mm 0 mps 733 mmHg 87%
    05:00 +10°C° 0 mm 1 mps 733 mmHg 77%
    06:00 +13°C° 0 mm 1 mps 733 mmHg 67%
    07:00 +15°C° 0 mm 1 mps 734 mmHg 57%
    08:00 +16°C° 0 mm 1 mps 734 mmHg 52%
    09:00 +17°C° 0 mm 2 mps 734 mmHg 47%
    10:00 +19°C° 0 mm 2 mps 734 mmHg 42%
    11:00 +19°C° 0 mm 2 mps 734 mmHg 40%
    12:00 +20°C° 0 mm 2 mps 734 mmHg 38%
    13:00 +21°C° 0 mm 2 mps 734 mmHg 36%
    14:00 +21°C° 0 mm 2 mps 734 mmHg 37%
    15:00 +21°C° 0 mm 2 mps 734 mmHg 38%
    16:00 +21°C° 0 mm 2 mps 734 mmHg 38%
    17:00 +20°C° 0 mm 2 mps 734 mmHg 46%
    18:00 +19°C° 0 mm 2 mps 734 mmHg 54%
    19:00 +17°C° 0 mm 2 mps 734 mmHg 62%
    20:00 +15°C° 0 mm 1 mps 734 mmHg 67%
    21:00 +13°C° 0 mm 1 mps 734 mmHg 73%
    22:00 +12°C° 0 mm 1 mps 734 mmHg 78%
    23:00 +11°C° 0 mm 1 mps 734 mmHg 80%
    Show more